Location: Utrecht
(52.0907°N, 5.1214°E)
Time: 18:28:48
(UTC+01:00)

METEOR 1-16 DEB - Visible Passes

Search period start: 30 November 2022 00:00
Search period end: 10 December 2022 00:00
Orbit: 802 x 851 km, 81.2° (Epoch: 29 November)

Date Brightness Start Highest point End Pass type
(mag) Time Alt. Az. Time Alt. Az. Time Alt. Az.
05 Dec ? 20:15:54 10° N 20:15:55 10° N 20:15:55 10° N visible
06 Dec ? 19:56:38 10° N 19:57:00 12° N 19:57:00 12° N visible
07 Dec ? 19:37:23 10° N 19:38:06 14° N 19:38:06 14° N visible
08 Dec ? 19:18:11 10° N 19:19:15 15° N 19:19:15 15° N visible
08 Dec ? 21:00:35 10° NNW 21:00:46 11° NNW 21:00:46 11° NNW visible
09 Dec ? 18:58:58 10° N 19:00:28 17° NNE 19:00:28 17° NNE visible
09 Dec ? 20:41:10 10° NNW 20:42:00 14° NNW 20:42:00 14° NNW visible
